Flag for Norway Weather past 2 weeks in Vennesla, Norway

Now
55 °F

Mostly cloudy.


Feels Like: 55 °F
Forecast: 52 / 69 °F
Wind: 2 mph from North

Location: Kristiansand / Kjevik

Current Time: Sep 2, 2014 at 4:11:51 AM

Latest Report: Sep 2, 2014 at 3:50 AM


Visibility: N/A

Pressure: 30.18 "Hg

Humidity: 100%

Dew point: 55 °F

Location of VenneslaLocation

Historic Weather in Vennesla — Graph

°F

Vennesla temperature yesterday

Maximum temperature yesterday: 61 °F (at 3:20 PM)
Minimum temperature yesterday: 54 °F (at 5:20 AM)
Average temperature yesterday: 57 °F

Past Weeks' High & Low Weather Summary

 TemperatureHumidityPressure
High70 °F (Aug 19, 2:20 PM)100% (Aug 18, 2:20 AM)30.18 "Hg (Aug 18, 2:20 AM)
Low45 °F (Aug 18, 4:20 AM)46% (Aug 19, 12:20 PM)29.18 "Hg (Aug 18, 1:50 PM)
Average57 °F80%29.73 "Hg
* Reported Aug 18 2:20 AM — Sep 2 2:50 AM, Vennesla, Weather by CustomWeather, © 2014

Note: Actual official high and low records may vary slightly from our data, if they occured in-between our weather recording intervals... More about our weather records

Advertising

Vennesla weather history for previous 24 hours

 ConditionsComfort  
Time TempWeatherWind HumidityBarometerVisibility
2:50 AM
Sep 2
55 °FOvercast.3 mph100%30.18 "HgN/A
2:20 AM57 °FOvercast.2 mph94%30.18 "HgN/A
1:50 AM57 °FRain. Passing clouds.5 mph88%30.18 "Hg1 mi
1:20 AM57 °FLight rain. Overcast.2 mph94%30.18 "HgN/A
12:50 AM57 °FMostly cloudy.6 mph88%30.18 "HgN/A
12:20 AM57 °FLight rain. Mostly cloudy.7 mph88%30.18 "HgN/A
11:50 PM
Sep 1
57 °FPassing clouds.6 mph88%30.18 "HgN/A
11:20 PM57 °FPartly cloudy.7 mph88%30.18 "HgN/A
10:50 PM57 °FPartly cloudy.8 mph88%30.18 "HgN/A
10:20 PM57 °FPassing clouds.8 mph88%30.18 "HgN/A
9:50 PM57 °FPassing clouds.7 mph88%30.18 "HgN/A
9:20 PM57 °FPartly sunny.6 mph88%30.18 "HgN/A
8:50 PM59 °FPartly sunny.7 mph82%30.18 "HgN/A
8:20 PM59 °FBroken clouds.7 mph82%30.18 "HgN/A
7:50 PM59 °FPartly sunny.7 mph82%30.15 "HgN/A
7:20 PM59 °FPartly sunny.7 mph82%30.15 "HgN/A
6:50 PM59 °FPartly sunny.8 mph82%30.15 "HgN/A
6:20 PM59 °FPartly sunny.10 mph82%30.15 "HgN/A
5:50 PM61 °FPartly sunny.10 mph77%30.15 "HgN/A
5:20 PM61 °FPartly sunny.13 mph77%30.15 "HgN/A
4:50 PM61 °FBroken clouds.10 mph77%30.15 "HgN/A
4:20 PM61 °FPartly sunny.12 mph77%30.18 "HgN/A
3:50 PM61 °FPartly sunny.13 mph77%30.18 "HgN/A
3:20 PM61 °FPartly sunny.13 mph77%30.18 "HgN/A
2:50 PM59 °FPartly sunny.12 mph82%30.18 "HgN/A
2:20 PM59 °FPartly sunny.10 mph82%30.18 "HgN/A
1:50 PM59 °FPartly sunny.10 mph82%30.18 "HgN/A
1:20 PM59 °FPartly sunny.10 mph82%30.18 "HgN/A
12:50 PM59 °FPartly sunny.10 mph82%30.18 "HgN/A
12:20 PM59 °FBroken clouds.12 mph82%30.18 "HgN/A
11:50 AM59 °FBroken clouds.10 mph82%30.18 "HgN/A
11:20 AM59 °FBroken clouds.9 mph82%30.18 "HgN/A
10:50 AM57 °FBroken clouds.10 mph88%30.15 "HgN/A
10:20 AM57 °FPartly sunny.14 mph88%30.15 "HgN/A
9:50 AM57 °FScattered clouds.14 mph82%30.15 "HgN/A
9:20 AM55 °FBroken clouds.12 mph88%30.15 "HgN/A
8:50 AM55 °FPartly sunny.10 mph88%30.15 "HgN/A
8:20 AM54 °FPartly sunny.10 mph94%30.15 "HgN/A
7:50 AM54 °FPartly sunny.9 mph94%30.15 "HgN/A
7:20 AM54 °FPassing clouds.8 mph94%30.15 "HgN/A
6:50 AM54 °FPassing clouds.9 mph88%30.15 "HgN/A
6:20 AM54 °FPassing clouds.9 mph94%30.12 "HgN/A
5:50 AM54 °FPassing clouds.9 mph94%30.12 "HgN/A
5:20 AM54 °FPassing clouds.7 mph94%30.15 "HgN/A
4:50 AM55 °FOvercast.9 mph88%30.15 "HgN/A
4:20 AM55 °FOvercast.6 mph88%30.15 "HgN/A
Weather by CustomWeather, © 2014

See weather overviewHow to use our weather pages